Regional Weather Roundup
Issued by NWS Kansas City/Pleasant Hill, MO

Home | Current Version | Previous Version | Graphics & Text | Print | Product List | Glossary Off
Versions: 1 2 3 4 5 6 7 8 9 10 11 12 13 14 15 16 17 18 19 20 21 22 23 24 25 26 27 28 29 30 31 32 33 34 35 36 37 38 39 40 41 42 43 44 45 46 47 48 49 50

198
ASUS43 KEAX 210910
RWREAX

WEATHER ROUNDUP FOR EASTERN KANSAS AND NORTHWEST MISSOURI
NATIONAL WEATHER SERVICE KANSAS CITY/PLEASANT HILL MO
400 AM CDT FRI JUL 21 2017

KSZ040-057-103>105-MOZ028-029-037-043-211000-
...KANSAS CITY METROPOLITAN AREA...

CITY           SKY/WX    TMP DP  RH WIND       PRES   REMARKS
K.C. INTL      CLEAR     80  73  79 SW10      29.94F
K.C. DOWNTOWN  CLEAR     85  72  65 SW12      29.93F HX  91
LEES SUMMIT    CLEAR     81  73  76 SW13      29.96F
OLATHE - IXD   CLEAR     78  72  81 S9        29.96F
OLATHE - OJC   CLEAR     77  73  87 S5        29.96F
LAWRENCE       CLEAR     79  74  84 E5        29.93F

$$

MOZ001>008-011>017-020>025-030>033-038>040-044>046-053-054-211000-
...NORTHERN AND CENTRAL MISSOURI...

CITY           SKY/WX    TMP DP  RH WIND       PRES   REMARKS
ST. JOSEPH     CLEAR     79  75  87 S7        29.92F
MOSBY          SUNNY     79  72  78 CALM      29.94F
WARRENSBURG    CLEAR     73  70  88 CALM      29.96S
WHITEMAN AFB   CLEAR     75  75 100 SW9       29.96S
CLINTON        CLEAR     77  73  88 SW5       29.99R
SEDALIA        NOT AVBL
WARSAW         NOT AVBL
CHILLICOTHE      N/A     79  76  90 CALM      29.95F
KIRKSVILLE     CLOUDY    79  75  87 S6        29.97F

$$

MOZ041-047>049-056>058-063>065-088>090-097-211000-
...EASTERN AND SOUTHERN MISSOURI...

CITY           SKY/WX    TMP DP  RH WIND       PRES   REMARKS
ST. LOUIS INTL CLEAR     85  72  65 SW6       29.97S HX  91
SPIRIT OF STL  CLEAR     80  74  81 CALM      29.96R
COLUMBIA       CLEAR     78  72  81 SW3       29.98F
JEFFERSON CITY CLEAR     76  76 100 E3        29.97S
ROLLA          CLEAR     74  71  91 SW8       30.01S
OSAGE BEACH    CLEAR     73  70  90 CALM      30.00S
SPRINGFIELD    CLEAR     76  72  87 CALM      30.02S
BRANSON          N/A     77  72  83 CALM      30.04S
JOPLIN         CLEAR     80  73  79 S9        30.00F
WEST PLAINS    CLEAR     76  73  91 W5        30.05R

$$

IAZ060-094-KSZ022-034>040-054-083-096-NEZ052-066-093-211000-
...KANSAS...SOUTHEAST NEBRASKA AND IOWA...

CITY           SKY/WX    TMP DP  RH WIND       PRES   REMARKS
TOPEKA         CLEAR     82  74  76 S6        29.92F
MANHATTAN      CLEAR     83  70  64 SW13      29.90F
EMPORIA        CLEAR     78  71  79 S14       29.94F
CHANUTE        PTCLDY    79  72  79 S8        29.98F
WICHITA        CLEAR     79  70  74 S9        29.96S
OMAHA          CLOUDY    84  71  65 S14       29.87F
LINCOLN        CLEAR     81  68  64 S13       29.86F
FALLS CITY     PTCLDY    81  72  74 S8        29.90F
LAMONI         CLOUDY    80  77  90 S5        29.93F
DES MOINES     CLOUDY    76  72  87 SE6       29.91F

$$





USA.gov is the U.S. government's official web portal to all federal, state and local government web resources and services.